Patton, CA (92369)

3:39 PM PDT on June 26, 2017 (GMT -0700)
Marshall | | Change Station
Active Advisory: Heat Advisory

Elev 1275 ft 34.15 °N, 117.27 °W | Updated 10 seconds ago

Clear
Clear
102.9 °F
Feels Like 99 °F
N
11.4
Wind Variable Wind from ESE

Today
High -- | Low -- °F
--% Chance of Precip.
Yesterday
High -- | Low -- °F
Precip. -- in
Pressure 29.93 in
Visibility 7.0 miles
Clouds Clear
Heat Index 99 °F
Dew Point 45 °F
Humidity 14%
Rainfall 0.00 in
Snow Depth Not available.
5:39 AM 8:04 PM
Waxing Crescent, 11% visible
METAR KSBD 262150Z 24018KT 07SM SKC 42/M01 A2993
Pressure 29.93 in
Visibility 7.0 miles
Clouds Clear
Heat Index 99 °F
Dew Point 45 °F
Humidity 14%
Rainfall 0.00 in
Snow Depth Not available.
5:39 AM 8:04 PM
Waxing Crescent, 11% visible
METAR KSBD 262150Z 24018KT 07SM SKC 42/M01 A2993

Get Your Daily Forecast Email!

Thanks for signing up!

Be on the lookout for a verification email in your inbox.

You'll start receiving severe weather alerts in your inbox..

×

10-Day Weather Forecast

Almanac

Astronomy

Jun. 26, 2017 Rise Set
Actual Time
Civil Twilight
Nautical Twilight
Astronomical Twilight
Moon
Length of Visible Light
Length of Day
Tomorrow will be .
, % of the Moon is Illuminated

Today's Extremes

State Highs State Lows

Community

WunderPhotos

Category 6

Welcome to Category 6. This is the collective home for Weather Underground's featured writeups by Dr. Jeff Masters (right), Bob Henson (left), Chris Burt, and other regular contributors.

Nearby

Air Quality

  Air Quality AQ Index Pollutant
Not available.

Snow Depth

Station Depth Elevation

Earthquake Activity

City Distance Mag. Time & Date
Minimum magnitude displayed is 2.5.

Coastal Water Temperatures

Place Temperature

Stations

Nearby Weather Stations

Station Location Temp. Windchill Dew Point Humidity Wind Precip. Elev Updated Type
                   

Watches & Warnings

Heat Advisory
Issued: 1:51 PM PDT Jun. 26, 2017 – National Weather Service

... Heat advisory remains in effect until 9 PM PDT this evening...

* high temperatures... 103 to 112.

* Impacts... those working or spending time outdoors, the
elderly, children, and those unaccustomed to excessive heat
will be most susceptible to dangerous heat illness.

Precautionary/preparedness actions...

Take extra precautions... if you work or spend time outside. When
possible... reschedule strenuous activities to early morning or
evening. Know the signs and symptoms of heat exhaustion and heat
stroke. Wear light weight and loose fitting clothing when
possible and drink plenty of water.